When you browse on this site, cookies collect data to enhance your experience and personalize the content and advertising you see.
Visit our Privacy Policy to learn more. By continuing to use the site, you agree to this use of cookies and data.
  • In United Kingdom
  • List of Countries
  • For 7 days
  • Water Temperature
  • Weather Map
  • Weather Widgets
  • user-avatar
    Login

    Hourly Weather Truto

    Today, 4 April, Saturday

    Time Temperature Precipitation Wind Pressure Humidity
    00:00 +6°C° 0 mm 1 mps 761 mmHg 89%
    01:00 +6°C° 0 mm 2 mps 761 mmHg 90%
    02:00 +6°C° 0 mm 2 mps 761 mmHg 91%
    03:00 +5°C° 0 mm 3 mps 761 mmHg 91%
    04:00 +5°C° 0 mm 4 mps 760 mmHg 91%
    05:00 +5°C° 0 mm 4 mps 760 mmHg 91%
    06:00 +5°C° 0 mm 5 mps 760 mmHg 91%
    07:00 +5°C° 0 mm 6 mps 760 mmHg 88%
    08:00 +8°C° 0 mm 6 mps 759 mmHg 85%
    09:00 +9°C° 0 mm 7 mps 759 mmHg 82%
    10:00 +10°C° 0 mm 7 mps 759 mmHg 80%
    11:00 +10°C° 0 mm 8 mps 759 mmHg 78%
    12:00 +11°C° 0 mm 8 mps 759 mmHg 76%
    13:00 +11°C° 0 mm 8 mps 759 mmHg 76%
    14:00 +11°C° 0 mm 7 mps 758 mmHg 76%
    15:00 +11°C° 0 mm 7 mps 758 mmHg 75%
    16:00 +10°C° 0 mm 7 mps 758 mmHg 78%
    17:00 +10°C° 0 mm 7 mps 758 mmHg 81%
    18:00 +9°C° 0 mm 6 mps 757 mmHg 83%
    19:00 +9°C° 0 mm 7 mps 757 mmHg 85%
    20:00 +9°C° 0 mm 7 mps 757 mmHg 86%
    21:00 +8°C° 0 mm 7 mps 757 mmHg 87%
    22:00 +9°C° 0 mm 8 mps 756 mmHg 87%
    23:00 +9°C° 0 mm 8 mps 756 mmHg 87%

    Tomorrow, 5 April, Sunday

    Time Temperature Precipitation Wind Pressure Humidity
    00:00 +8°C° 0 mm 9 mps 755 mmHg 87%
    01:00 +8°C° 0 mm 9 mps 755 mmHg 88%
    02:00 +8°C° 0 mm 9 mps 754 mmHg 89%
    03:00 +8°C° 0 mm 9 mps 753 mmHg 90%
    04:00 +8°C° 0 mm 9 mps 753 mmHg 89%
    05:00 +8°C° 0 mm 9 mps 752 mmHg 88%
    06:00 +9°C° 0 mm 8 mps 752 mmHg 86%
    07:00 +10°C° 0 mm 9 mps 752 mmHg 85%
    08:00 +11°C° 0 mm 10 mps 752 mmHg 84%
    09:00 +11°C° 0 mm 10 mps 752 mmHg 83%
    10:00 +12°C° 0 mm 10 mps 751 mmHg 81%
    11:00 +13°C° 0 mm 10 mps 751 mmHg 79%
    12:00 +14°C° 0 mm 10 mps 751 mmHg 77%
    13:00 +13°C° 0 mm 10 mps 750 mmHg 77%
    14:00 +13°C° 0 mm 10 mps 750 mmHg 78%
    15:00 +13°C° 0 mm 11 mps 749 mmHg 79%
    16:00 +12°C° 0.8 mm 11 mps 749 mmHg 84%
    17:00 +11°C° 0.8 mm 11 mps 749 mmHg 90%
    18:00 +10°C° 0.8 mm 12 mps 749 mmHg 95%
    19:00 +9°C° 0.3 mm 11 mps 749 mmHg 95%
    20:00 +9°C° 0.3 mm 10 mps 750 mmHg 95%
    21:00 +10°C° 0.3 mm 9 mps 750 mmHg 95%
    22:00 +10°C° 0.1 mm 8 mps 751 mmHg 93%
    23:00 +10°C° 0.1 mm 8 mps 751 mmHg 92%

    Day after tomorrow, 6 April, Monday

    Time Temperature Precipitation Wind Pressure Humidity
    00:00 +9°C° 0.1 mm 7 mps 752 mmHg 90%
    01:00 +9°C° 0 mm 6 mps 752 mmHg 90%
    02:00 +8°C° 0 mm 6 mps 753 mmHg 90%
    03:00 +8°C° 0 mm 6 mps 753 mmHg 90%
    04:00 +8°C° 0.1 mm 6 mps 754 mmHg 91%
    05:00 +7°C° 0.1 mm 5 mps 755 mmHg 91%
    06:00 +7°C° 0.1 mm 5 mps 755 mmHg 92%
    07:00 +8°C° 0 mm 5 mps 756 mmHg 89%
    08:00 +9°C° 0 mm 5 mps 757 mmHg 86%
    09:00 +10°C° 0 mm 5 mps 758 mmHg 83%
    10:00 +10°C° 0.1 mm 6 mps 759 mmHg 81%
    11:00 +10°C° 0.1 mm 6 mps 759 mmHg 79%
    12:00 +11°C° 0.1 mm 6 mps 760 mmHg 77%
    13:00 +12°C° 0 mm 5 mps 761 mmHg 76%
    14:00 +10°C° 0 mm 5 mps 762 mmHg 74%
    15:00 +10°C° 0 mm 5 mps 763 mmHg 73%
    16:00 +11°C° 0 mm 4 mps 763 mmHg 75%
    17:00 +10°C° 0 mm 4 mps 764 mmHg 77%
    18:00 +9°C° 0 mm 3 mps 764 mmHg 79%
    19:00 +8°C° 0 mm 3 mps 765 mmHg 82%
    20:00 +7°C° 0 mm 3 mps 766 mmHg 84%
    21:00 +6°C° 0 mm 2 mps 767 mmHg 86%
    22:00 +6°C° 0 mm 2 mps 767 mmHg 85%
    23:00 +6°C° 0 mm 2 mps 767 mmHg 84%

    7 April, Tuesday

    Time Temperature Precipitation Wind Pressure Humidity
    00:00 +5°C° 0 mm 2 mps 768 mmHg 83%
    01:00 +6°C° 0 mm 1 mps 768 mmHg 83%
    02:00 +6°C° 0 mm 1 mps 768 mmHg 83%
    03:00 +6°C° 0 mm 1 mps 768 mmHg 82%
    04:00 +6°C° 0 mm 1 mps 768 mmHg 83%
    05:00 +5°C° 0 mm 2 mps 769 mmHg 83%
    06:00 +5°C° 0 mm 2 mps 769 mmHg 83%
    07:00 +7°C° 0 mm 2 mps 769 mmHg 80%
    08:00 +8°C° 0 mm 3 mps 769 mmHg 77%
    09:00 +10°C° 0 mm 4 mps 769 mmHg 73%
    10:00 +10°C° 0 mm 4 mps 770 mmHg 71%
    11:00 +11°C° 0 mm 4 mps 770 mmHg 69%
    12:00 +12°C° 0 mm 5 mps 770 mmHg 67%
    13:00 +12°C° 0 mm 5 mps 770 mmHg 69%
    14:00 +12°C° 0 mm 5 mps 770 mmHg 70%
    15:00 +12°C° 0 mm 5 mps 770 mmHg 72%
    16:00 +10°C° 0 mm 5 mps 769 mmHg 76%
    17:00 +9°C° 0 mm 5 mps 769 mmHg 80%
    18:00 +9°C° 0 mm 5 mps 769 mmHg 84%
    19:00 +8°C° 0 mm 5 mps 769 mmHg 86%
    20:00 +7°C° 0 mm 5 mps 769 mmHg 88%
    21:00 +6°C° 0 mm 5 mps 769 mmHg 90%
    22:00 +5°C° 0 mm 6 mps 769 mmHg 90%
    23:00 +5°C° 0 mm 6 mps 769 mmHg 90%

    8 April, Wednesday

    Time Temperature Precipitation Wind Pressure Humidity
    00:00 +5°C° 0 mm 6 mps 769 mmHg 90%
    01:00 +5°C° 0 mm 6 mps 768 mmHg 91%
    02:00 +7°C° 0 mm 6 mps 768 mmHg 91%
    03:00 +7°C° 0 mm 6 mps 768 mmHg 91%
    04:00 +7°C° 0 mm 6 mps 767 mmHg 91%
    05:00 +6°C° 0 mm 7 mps 767 mmHg 91%
    06:00 +6°C° 0 mm 7 mps 767 mmHg 91%
    07:00 +8°C° 0 mm 7 mps 767 mmHg 89%
    08:00 +10°C° 0 mm 7 mps 767 mmHg 86%
    09:00 +11°C° 0 mm 7 mps 766 mmHg 83%
    10:00 +11°C° 0 mm 7 mps 766 mmHg 80%
    11:00 +12°C° 0 mm 7 mps 766 mmHg 77%
    12:00 +13°C° 0 mm 8 mps 766 mmHg 74%
    13:00 +13°C° 0 mm 8 mps 765 mmHg 75%
    14:00 +14°C° 0 mm 7 mps 765 mmHg 76%
    15:00 +12°C° 0 mm 7 mps 765 mmHg 77%
    16:00 +12°C° 0 mm 7 mps 764 mmHg 80%
    17:00 +11°C° 0 mm 7 mps 764 mmHg 83%
    18:00 +11°C° 0 mm 7 mps 763 mmHg 85%
    19:00 +10°C° 0 mm 6 mps 763 mmHg 88%
    20:00 +10°C° 0 mm 6 mps 763 mmHg 90%
    21:00 +9°C° 0 mm 5 mps 763 mmHg 92%
    22:00 +9°C° 0 mm 5 mps 763 mmHg 93%
    23:00 +9°C° 0 mm 5 mps 763 mmHg 94%

    9 April, Thursday

    Time Temperature Precipitation Wind Pressure Humidity
    00:00 +9°C° 0 mm 5 mps 763 mmHg 94%
    01:00 +9°C° 0 mm 5 mps 762 mmHg 93%
    02:00 +9°C° 0 mm 5 mps 762 mmHg 93%
    03:00 +9°C° 0 mm 5 mps 761 mmHg 92%
    04:00 +9°C° 0 mm 5 mps 761 mmHg 91%
    05:00 +9°C° 0 mm 5 mps 761 mmHg 90%
    06:00 +9°C° 0 mm 6 mps 760 mmHg 89%
    07:00 +10°C° 0 mm 6 mps 760 mmHg 87%
    08:00 +11°C° 0 mm 6 mps 760 mmHg 86%
    09:00 +13°C° 0 mm 6 mps 760 mmHg 85%
    10:00 +13°C° 0 mm 6 mps 760 mmHg 84%
    11:00 +14°C° 0 mm 6 mps 760 mmHg 84%
    12:00 +14°C° 0 mm 6 mps 759 mmHg 83%
    13:00 +13°C° 0.3 mm 6 mps 759 mmHg 86%
    14:00 +13°C° 0.3 mm 5 mps 759 mmHg 89%
    15:00 +12°C° 0.3 mm 5 mps 759 mmHg 92%
    16:00 +12°C° 0.4 mm 5 mps 759 mmHg 94%
    17:00 +12°C° 0.4 mm 5 mps 759 mmHg 96%
    18:00 +10°C° 0.4 mm 5 mps 759 mmHg 98%
    19:00 +11°C° 0.2 mm 4 mps 759 mmHg 98%
    20:00 +11°C° 0.2 mm 4 mps 759 mmHg 98%
    21:00 +11°C° 0.2 mm 4 mps 759 mmHg 98%
    22:00 +11°C° 0 mm 3 mps 759 mmHg 98%
    23:00 +11°C° 0 mm 3 mps 759 mmHg 98%
    Show more